Guymon, OK

10:47 PM CDT on May 24, 2017 (GMT -0500)
Guymon Municipal

Weather History for KGUY - July, 2014

Change the Weather History Date:

Monday, July 14, 2014

  Actual Average Record
Temperature  
Mean Temperature 79 °F 80 °F  
Max Temperature 91 °F 95 °F 105 °F (2003)
Min Temperature 67 °F 65 °F 60 °F (2002)
Degree Days  
Heating Degree Days 0 0  
Month to date heating degree days 0 0  
Since 1 June heating degree days 5 8  
Since 1 July heating degree days 0 0  
Cooling Degree Days 14 15  
Month to date cooling degree days 213 200  
Year to date cooling degree days 740 588  
Since 1 June cooling degree days 562 480  
Growing Degree Days 26 (Base 50)    
Moisture  
Dew Point 65 °F    
Average Humidity 69    
Maximum Humidity 97    
Minimum Humidity 41    
Precipitation  
Precipitation 0.14 in 0.09 in 0.47 in (2001)
Month to date precipitation 0.46 1.18  
Year to date precipitation 6.19 10.37  
Snow  
Snow 0.00 in - - ()
Month to date snowfall 0.0  
Since 1 June snowfall 0.0  
Since 1 July snowfall 0.0  
Snow Depth 0.00 in    
Sea Level Pressure  
Sea Level Pressure 30.02 in    
Wind  
Wind Speed 6 mph (NNE)    
Max Wind Speed 33 mph    
Max Gust Speed 45 mph    
Visibility 10 miles    
Events Rain , Thunderstorm    
T = Trace of Precipitation, MM = Missing Value Source: NWS Daily Summary

Daily Weather History Graph

Daily Weather History Graph

Search for Another Location

Airport or City:

Trip Planner

Search our weather history database for the weather conditions in past years. The results will help you decide how hot, cold, wet, or windy it might be!

Date:

Astronomy

Jul. 14, 2014 Rise Set
Actual Time 6:38 AM CDT 9:05 PM CDT
Civil Twilight 6:08 AM CDT 9:34 PM CDT
Nautical Twilight 5:31 AM CDT 10:11 PM CDT
Astronomical Twilight 4:50 AM CDT 10:52 PM CDT
Moon 10:42 PM CDT (7/14) 9:18 AM CDT (7/14)
Length of Visible Light 15h 26m
Length of Day
14h 26m
Waning Gibbous, 93% of the Moon is Illuminated
Jul 14
Waning Gibbous
Jul 18
Last Quarter
Jul 26
New
Aug 3
First Quarter
Aug 10
Full

Hourly Weather History & Observations

Time (CDT) Temp. Heat Index Dew Point Humidity Pressure Visibility Wind Dir Wind Speed Gust Speed Precip Events Conditions
12:53 AM 70.0 °F - 66.9 °F 90% 30.01 in 10.0 mi Calm Calm - N/A   Clear
1:53 AM 70.0 °F - 68.0 °F 93% 30.00 in 10.0 mi North 4.6 mph - N/A   Clear
2:53 AM 69.1 °F - 66.9 °F 93% 29.97 in 10.0 mi Calm Calm - N/A   Clear
3:53 AM 69.1 °F - 66.0 °F 90% 29.96 in 10.0 mi West 3.5 mph - N/A   Clear
4:53 AM 68.0 °F - 64.9 °F 90% 29.96 in 10.0 mi WSW 8.1 mph - N/A   Clear
5:53 AM 66.9 °F - 64.9 °F 93% 30.00 in 10.0 mi North 3.5 mph - N/A   Clear
6:53 AM 68.0 °F - 64.9 °F 90% 30.01 in 10.0 mi West 5.8 mph - N/A   Mostly Cloudy
7:53 AM 69.1 °F - 66.0 °F 90% 30.01 in 10.0 mi Calm Calm - N/A   Clear
8:53 AM 72.0 °F - 66.9 °F 84% 30.02 in 10.0 mi NNE 3.5 mph - N/A   Clear
9:53 AM 75.0 °F - 66.0 °F 73% 30.02 in 10.0 mi Calm Calm - N/A   Clear
10:53 AM 79.0 °F - 64.9 °F 62% 30.01 in 10.0 mi Variable 3.5 mph - N/A   Clear
11:53 AM 82.0 °F 83.8 °F 64.9 °F 56% 30.01 in 10.0 mi Variable 3.5 mph - N/A   Clear
12:53 PM 86.0 °F 86.8 °F 63.0 °F 46% 29.99 in 10.0 mi Variable 5.8 mph - N/A   Clear
3:53 PM 82.9 °F 83.3 °F 61.0 °F 47% 30.00 in 10.0 mi NW 21.9 mph 31.1 mph N/A Thunderstorm Overcast
4:05 PM 75.9 °F - 63.0 °F 64% 30.14 in 10.0 mi NNW 26.5 mph 36.8 mph 0.00 in Rain , Thunderstorm Light Thunderstorms and Rain
4:39 PM 72.0 °F - 62.1 °F 71% 30.13 in 8.0 mi East 17.3 mph 27.6 mph 0.14 in Rain , Thunderstorm Light Thunderstorms and Rain
5:53 PM 78.1 °F - 66.9 °F 68% 29.95 in 10.0 mi NNE 5.8 mph - 0.00 in   Clear
6:53 PM 80.1 °F 81.9 °F 64.9 °F 60% 29.98 in 10.0 mi North 4.6 mph - N/A   Clear
7:53 PM 80.1 °F 81.9 °F 64.9 °F 60% 30.00 in 10.0 mi NE 8.1 mph - N/A   Clear
8:53 PM 77.0 °F - 63.0 °F 62% 30.02 in 10.0 mi NE 8.1 mph - N/A   Clear
9:53 PM 75.9 °F - 63.0 °F 64% 30.03 in 10.0 mi ENE 15.0 mph - N/A   Clear
10:53 PM 73.0 °F - 62.1 °F 68% 30.06 in 10.0 mi ENE 10.4 mph - N/A   Clear
11:53 PM 71.1 °F - 63.0 °F 75% 30.08 in 10.0 mi East 12.7 mph - N/A   Clear